[[{"header":{"parameterUnit":"m.s-1","parameterCategory":1,"la1":30.2991,"la2":30.254,"lo1":-89.0895,"lo2":-89.0444,"dy":0.0017,"dx":0.0017,"nx":28,"ny":28,"refTime":"2024-05-25T03:00:00:Z","depth":0,"parameterNumber":2,"parameterNumberName":"U-component_of_WINDS"},"data":[0,0,0,0,0,0,0,0,0,0,0,0,0,0,0,0,0,0,0,0,0,0,0,0,0,0,0,0,0,0,0,0,0,0,0,0,0,0,0,0,0,0,0,0,0,0,0,0,0,0,0,0,0,0,0,0,0,0,-1.2764,-1.2763,0,-1.269,-1.2689,-1.2689,-1.2639,-1.2639,-1.2639,-1.2638,-1.2562,-1.256,-1.2559,0,0,0,0,0,0,0,0,0,0,0,0,0,-1.2861,-1.286,-1.2764,-1.2763,-1.2762,-1.269,-1.2689,-1.2688,-1.2639,-1.2639,-1.2639,-1.2638,-1.2563,-1.2561,-1.2559,0,0,0,0,0,0,0,0,0,0,0,0,0,-1.2807,-1.2859,-1.2764,-1.2729,-1.2725,-1.2691,-1.2689,-1.2688,-1.264,-1.2639,-1.2639,-1.2638,-1.2563,-1.2561,-1.2558,-1.2552,0,0,-1.255,-1.2549,0,0,0,0,0,0,0,0,-1.281,-1.2803,-1.2735,-1.2731,-1.2727,-1.2674,-1.2696,-1.2643,-1.264,-1.2672,-1.2638,-1.2638,-1.2599,-1.2594,-1.2581,-1.2549,-1.2546,-1.255,-1.2549,-1.2547,-1.2547,0,0,0,0,0,0,0,-1.2814,-1.2806,-1.2735,-1.2734,-1.2729,-1.2717,-1.2709,-1.2686,-1.2639,-1.2669,-1.2665,-1.2657,-1.2597,-1.2584,-1.2579,-1.2545,-1.255,-1.2548,-1.2546,-1.2545,-1.2504,-1.2505,0,0,0,0,0,0,-1.2823,-1.2809,-1.2737,-1.2732,-1.2768,-1.2716,-1.2706,-1.2691,-1.264,-1.2631,-1.2658,-1.2655,-1.2588,-1.2582,-1.2576,-1.2566,-1.2548,-1.2545,-1.2544,-1.2504,-1.2504,-1.2505,0,0,0,0,0,0,-1.2825,-1.2817,-1.274,-1.277,-1.2759,-1.2714,-1.2698,-1.269,-1.2676,-1.2631,-1.2623,-1.2653,-1.2588,-1.258,-1.2559,-1.2562,-1.2544,-1.2542,-1.2503,-1.2504,-1.2505,-1.2545,0,0,0,0,0,0,-1.2828,-1.2818,-1.2815,-1.277,-1.2758,-1.2724,-1.2698,-1.2689,-1.2672,-1.2668,-1.2624,-1.2616,-1.2587,-1.2563,-1.2556,-1.2558,-1.254,-1.2503,-1.2504,-1.2505,-1.2543,-1.2547,-1.255,0,0,0,0,0,-1.2832,-1.2829,-1.2815,-1.2807,-1.2753,-1.2724,-1.2717,-1.2684,-1.2673,-1.267,-1.2641,-1.2617,-1.2564,-1.2561,-1.2553,-1.2555,-1.2502,-1.2503,-1.2504,-1.2541,-1.2546,-1.255,0,0,0,0,0,0,-1.2875,-1.2823,-1.2807,-1.2789,-1.2762,-1.2716,-1.2711,-1.269,-1.2664,-1.2661,-1.2621,-1.2611,-1.2595,-1.2573,-1.2571,-1.2547,-1.253,-1.253,-1.2561,-1.2565,-1.2569,-1.2573,-1.2537,0,0,0,0,0,-1.2883,-1.2864,-1.2819,-1.2808,-1.2795,-1.2756,-1.2742,-1.2719,-1.2688,-1.2676,-1.2645,-1.2617,-1.2593,-1.2578,-1.2554,-1.2541,-1.253,-1.2538,-1.2542,-1.2545,-1.2544,-1.2535,-1.2538,-1.2508,-1.2508,-1.2508,0,0,-1.2898,-1.2867,-1.2857,-1.2816,-1.2791,-1.2772,-1.2746,-1.2727,-1.2712,-1.2673,-1.2651,-1.2628,-1.2593,-1.2576,-1.2567,-1.2557,-1.255,-1.2546,-1.2549,-1.2546,-1.2537,-1.2539,-1.2542,-1.2509,-1.2509,-1.2509,0,0,-1.2915,-1.289,-1.2878,-1.2855,-1.2819,-1.2793,-1.2791,-1.2749,-1.2732,-1.271,-1.268,-1.2663,-1.2623,-1.26,-1.2583,-1.2594,-1.2571,-1.2587,-1.2605,-1.2597,-1.2599,-1.2601,-1.2604,-1.2606,-1.2587,-1.2587,-1.2588,0,-1.2938,-1.2908,-1.2875,-1.2857,-1.284,-1.2805,-1.2793,-1.2772,-1.273,-1.2719,-1.2709,-1.266,-1.2634,-1.2611,-1.2614,-1.2601,-1.2597,-1.2591,-1.2602,-1.2603,-1.2605,-1.2607,-1.2609,-1.259,-1.2589,-1.2589,-1.2589,0,-1.2938,-1.2918,-1.2913,-1.2874,-1.2856,-1.2842,-1.2806,-1.2792,-1.2772,-1.2747,-1.2725,-1.2694,-1.2663,-1.2656,-1.2635,-1.263,-1.2625,-1.261,-1.2592,-1.261,-1.2612,-1.2612,-1.2592,-1.2592,-1.2591,-1.2591,0,0,-1.2978,-1.2922,-1.292,-1.2903,-1.2862,-1.2845,-1.283,-1.28,-1.2789,-1.2762,-1.2748,-1.2716,-1.2702,-1.2683,-1.2659,-1.2653,-1.2663,-1.2637,-1.2636,-1.2642,-1.2655,-1.2666,-1.2667,-1.2649,-1.2649,-1.2649,-1.2657,0,-1.2988,-1.2957,-1.2928,-1.2908,-1.2889,-1.2857,-1.2843,-1.2817,-1.2794,-1.2775,-1.275,-1.2728,-1.2711,-1.2699,-1.2691,-1.2663,-1.2665,-1.2663,-1.2634,-1.2634,-1.2642,-1.2668,-1.2679,-1.2689,-1.2658,-1.2658,-1.2658,0,-1.2995,-1.297,-1.2949,-1.291,-1.2901,-1.2889,-1.286,-1.2843,-1.2812,-1.2796,-1.2776,-1.2752,-1.2734,-1.2721,-1.2695,-1.2694,-1.2682,-1.2667,-1.2666,-1.2661,-1.2645,-1.2662,-1.2691,-1.2692,-1.2659,-1.2659,-1.2659,0,-1.3025,-1.2986,-1.2968,-1.2954,-1.2909,-1.2902,-1.2883,-1.2852,-1.2837,-1.2812,-1.2801,-1.2775,-1.276,-1.274,-1.2709,-1.2702,-1.2687,-1.2671,-1.2672,-1.2673,-1.2669,-1.2669,-1.2694,-1.2664,-1.2664,-1.2664,-1.2664,0,-1.3038,-1.3026,-1.2981,-1.297,-1.2956,-1.2922,-1.2909,-1.2887,-1.2861,-1.2845,-1.2816,-1.2802,-1.2763,-1.2745,-1.2721,-1.2703,-1.2697,-1.2683,-1.2677,-1.2685,-1.2686,-1.2674,-1.2672,-1.2664,-1.2664,-1.2664,-1.2664,0,-1.3068,-1.3037,-1.3016,-1.2976,-1.2965,-1.2957,-1.2922,-1.291,-1.2887,-1.2868,-1.2861,-1.2824,-1.2801,-1.2769,-1.2736,-1.272,-1.2705,-1.2696,-1.2715,-1.2711,-1.2714,-1.2714,-1.2731,-1.2731,-1.2702,-1.2703,-1.2703,0,-1.3077,-1.3067,-1.3026,-1.3014,-1.2996,-1.2976,-1.2961,-1.2928,-1.2913,-1.2879,-1.2871,-1.2846,-1.2824,-1.2788,-1.2758,-1.2733,-1.2722,-1.273,-1.2718,-1.2726,-1.272,-1.2721,-1.2719,-1.2732,-1.2732,-1.2733,-1.2733,0,-1.3097,-1.3083,-1.3061,-1.3035,-1.3017,-1.2995,-1.2971,-1.2963,-1.2926,-1.291,-1.2886,-1.2869,-1.2836,-1.2811,-1.2782,-1.2763,-1.2742,-1.2738,-1.2737,-1.2743,-1.2755,-1.2748,-1.2722,-1.2737,-1.2736,-1.2736,-1.2736,-1.2736,-1.3115,-1.3105,-1.3075,-1.3053,-1.3032,-1.3011,-1.2998,-1.2974,-1.2953,-1.2923,-1.2906,-1.2883,-1.2854,-1.2813,-1.2795,-1.2776,-1.2768,-1.2767,-1.2766,-1.2766,-1.2768,-1.276,-1.2771,-1.2771,-1.2771,-1.2771,-1.2771,0,-1.3133,-1.3112,-1.3092,-1.306,-1.3043,-1.3026,-1.2999,-1.2986,-1.2966,-1.2941,-1.292,-1.2893,-1.2869,-1.2839,-1.2813,-1.2804,-1.2794,-1.2798,-1.2797,-1.2793,-1.2777,-1.278,-1.2807,-1.2807,-1.2807,-1.2807,-1.2807,-1.2807,-1.3139,-1.3121,-1.3104,-1.3075,-1.3055,-1.3032,-1.3018,-1.2999,-1.2979,-1.295,-1.293,-1.2911,-1.2884,-1.2856,-1.2834,-1.2825,-1.2817,-1.2824,-1.2812,-1.2798,-1.2794,-1.2791,-1.2794,-1.2823,-1.2823,-1.283,-1.283,-1.283]},{"header":{"parameterUnit":"m.s-1","parameterCategory":1,"la1":30.2991,"la2":30.254,"lo1":-89.0895,"lo2":-89.0444,"dy":0.0017,"dx":0.0017,"nx":28,"ny":28,"refTime":"2024-05-25T03:00:00:Z","depth":0,"parameterNumber":3,"parameterNumberName":"V-component_of_WINDS"},"data":[0,0,0,0,0,0,0,0,0,0,0,0,0,0,0,0,0,0,0,0,0,0,0,0,0,0,0,0,0,0,0,0,0,0,0,0,0,0,0,0,0,0,0,0,0,0,0,0,0,0,0,0,0,0,0,0,0,0,6.0941,6.0941,0,6.0923,6.0923,6.0922,6.0882,6.0881,6.088,6.0879,6.0858,6.0858,6.0859,0,0,0,0,0,0,0,0,0,0,0,0,0,6.094,6.094,6.0941,6.0941,6.0941,6.0923,6.0923,6.0922,6.0882,6.0881,6.088,6.0879,6.0858,6.0858,6.0859,0,0,0,0,0,0,0,0,0,0,0,0,0,6.0933,6.094,6.0941,6.0918,6.0916,6.0923,6.0923,6.0922,6.0882,6.0881,6.088,6.0878,6.0858,6.0858,6.0859,6.0886,0,0,6.086,6.086,0,0,0,0,0,0,0,0,6.0933,6.0933,6.0922,6.092,6.0917,6.0903,6.0914,6.091,6.0882,6.0895,6.0879,6.0878,6.0874,6.0873,6.0872,6.0885,6.0884,6.086,6.086,6.086,6.086,0,0,0,0,0,0,0,6.0934,6.0933,6.0934,6.0922,6.0919,6.0909,6.0906,6.0913,6.0892,6.0894,6.0891,6.0889,6.0873,6.0872,6.0871,6.0883,6.086,6.086,6.086,6.086,6.0919,6.092,0,0,0,0,0,0,6.0938,6.0934,6.0934,6.0933,6.0922,6.091,6.0907,6.0909,6.0891,6.0888,6.089,6.0887,6.0872,6.0871,6.0871,6.0902,6.086,6.086,6.0861,6.0918,6.0919,6.0921,0,0,0,0,0,0,6.0938,6.0938,6.0935,6.0933,6.0932,6.0911,6.0914,6.0909,6.0909,6.0889,6.0885,6.0894,6.0871,6.087,6.0883,6.0901,6.0861,6.0861,6.0916,6.0918,6.092,6.0965,0,0,0,0,0,0,6.0938,6.0938,6.0948,6.0933,6.0932,6.0948,6.0915,6.091,6.091,6.0906,6.0891,6.0887,6.087,6.0883,6.0883,6.0901,6.0861,6.0914,6.0917,6.0919,6.0962,6.0969,6.0974,0,0,0,0,0,6.0938,6.0961,6.0949,6.0949,6.0944,6.0949,6.0948,6.0928,6.0911,6.0921,6.0909,6.0888,6.0899,6.0884,6.0884,6.0902,6.0913,6.0916,6.0919,6.0959,6.0967,6.0974,0,0,0,0,0,0,6.0977,6.0959,6.0945,6.0964,6.0959,6.0942,6.0954,6.0937,6.0936,6.0932,6.0907,6.0904,6.092,6.0912,6.0896,6.0928,6.0903,6.0906,6.0933,6.0941,6.0946,6.0948,6.0861,0,0,0,0,0,6.0989,6.0995,6.0977,6.0996,6.0994,6.0975,6.0976,6.0962,6.0955,6.0952,6.094,6.0934,6.0936,6.0938,6.0938,6.0961,6.0957,6.0973,6.0979,6.0984,6.0988,6.1,6.1008,6.0931,6.0931,6.0931,0,0,6.1011,6.1002,6.1007,6.1004,6.0998,6.1005,6.0973,6.0981,6.0986,6.0953,6.0965,6.0956,6.0947,6.0965,6.0973,6.0959,6.1008,6.0988,6.0993,6.0993,6.1004,6.1012,6.1018,6.0933,6.0932,6.0932,0,0,6.1056,6.1049,6.1065,6.106,6.1052,6.1039,6.1043,6.103,6.1023,6.1035,6.1011,6.1016,6.102,6.1015,6.1013,6.1058,6.104,6.1059,6.1091,6.1104,6.111,6.1115,6.1133,6.1139,6.1062,6.1063,6.1063,0,6.1085,6.1095,6.1074,6.1085,6.1085,6.1056,6.1072,6.1068,6.106,6.1061,6.1046,6.1052,6.1043,6.1061,6.1073,6.1071,6.1075,6.1061,6.1111,6.1116,6.1121,6.1137,6.1143,6.1065,6.1065,6.1065,6.1064,0,6.1131,6.1139,6.1152,6.1147,6.1148,6.1161,6.1143,6.1146,6.1132,6.1121,6.1134,6.1124,6.1123,6.1126,6.1111,6.1142,6.1134,6.1115,6.1089,6.1131,6.1146,6.1152,6.1069,6.1068,6.1067,6.1066,0,0,6.12,6.1185,6.119,6.1189,6.1178,6.1184,6.1196,6.1196,6.12,6.1196,6.1206,6.1211,6.1194,6.1192,6.1177,6.1188,6.1227,6.1168,6.1168,6.118,6.1261,6.1276,6.1283,6.1214,6.1215,6.1216,6.1262,0,6.1243,6.1264,6.1246,6.127,6.1277,6.1251,6.1262,6.1257,6.1247,6.1252,6.1241,6.1245,6.1222,6.1221,6.1231,6.122,6.1242,6.1216,6.1223,6.1224,6.1227,6.1291,6.1306,6.135,6.1268,6.1269,6.1269,0,6.1296,6.1296,6.1321,6.1311,6.1314,6.1324,6.1323,6.1328,6.1322,6.1314,6.1313,6.1295,6.1307,6.1281,6.1297,6.1279,6.1281,6.1276,6.1277,6.1278,6.1249,6.1294,6.1364,6.1371,6.1278,6.1277,6.1277,0,6.1345,6.1351,6.1368,6.1367,6.1355,6.1363,6.1358,6.1351,6.1353,6.1353,6.1354,6.1354,6.1355,6.1356,6.1339,6.1321,6.1357,6.1329,6.1351,6.1352,6.136,6.136,6.1432,6.136,6.136,6.136,6.136,0,6.1395,6.1412,6.139,6.14,6.1418,6.1398,6.1416,6.1409,6.1403,6.1411,6.1388,6.1396,6.1373,6.1379,6.1366,6.1381,6.1381,6.1376,6.1372,6.1378,6.1379,6.138,6.1376,6.1362,6.1361,6.1361,6.1361,0,6.1453,6.1439,6.1455,6.1444,6.1441,6.1455,6.1445,6.1454,6.1444,6.1455,6.1456,6.1439,6.1445,6.1428,6.1431,6.1422,6.1446,6.1436,6.1448,6.1446,6.1469,6.1467,6.1544,6.1554,6.1475,6.1476,6.1477,0,6.1487,6.1499,6.149,6.1494,6.1491,6.1498,6.1501,6.1482,6.1485,6.1481,6.149,6.1495,6.1497,6.1507,6.1495,6.1498,6.1489,6.1516,6.1489,6.1496,6.1491,6.1491,6.1492,6.1522,6.1523,6.1523,6.1524,0,6.1548,6.1541,6.1546,6.1549,6.1552,6.1553,6.1552,6.1557,6.1537,6.1542,6.1548,6.155,6.1554,6.1559,6.1559,6.1554,6.1536,6.1533,6.1538,6.1545,6.1552,6.155,6.1464,6.1531,6.153,6.153,6.1529,6.1529,6.1596,6.1606,6.1602,6.1608,6.1606,6.1606,6.1615,6.1606,6.1611,6.1614,6.1602,6.1612,6.1607,6.1605,6.1602,6.1609,6.1597,6.1604,6.1606,6.1609,6.1613,6.155,6.1609,6.1609,6.1608,6.1608,6.1608,0,6.1657,6.1653,6.1659,6.166,6.1665,6.1649,6.1648,6.1653,6.1662,6.1659,6.1663,6.1671,6.1676,6.1665,6.1668,6.1676,6.1668,6.1678,6.1677,6.1677,6.1623,6.1619,6.1684,6.1684,6.1684,6.1684,6.1684,6.1684,6.169,6.1707,6.17,6.1716,6.1712,6.1722,6.1723,6.1724,6.1722,6.1732,6.1737,6.173,6.1724,6.1727,6.1731,6.1728,6.1731,6.1743,6.1737,6.1688,6.168,6.1673,6.1669,6.1744,6.1744,6.179,6.1791,6.1791]}]]